Weather in Dagda

Latvia     56°05′40″N   27°32′13″E
temp.,
°C
wind,
m/s
gust,
m/s
humid.,
%
clouds,
%
prec.,
mm/h
press.,
hPa
HPBL,
m
21 june, mon
mon2100:00+21sse310901 0.1 1017240
03:00+19sse279720 0.2 1017157
06:00+19sse259635 0.2 1017132
09:00+24se35755 0.2 1017385
12:00+28sse45545 0.0 10171054
15:00+29sse45455 0.0 10161305
18:00+29sse36500 0.0 10151047
21:00+22se2107946 0.0 1015303
22 june, tue
tue2200:00+19ese288899 0.0 1015163
03:00+18ese289637 0.0 1015163
06:00+19ese3109310 0.0 1014300
09:00+24sse5975100 0.0 1014589
12:00+25sse5879100 0.5 10141033
15:00+26s4778100 1.9 1015911
18:00+26sse377457 1.3 1014720
21:00+23se258811 1.8 101499
23 june, wed
wed2300:00+21se269511 0.0 1015109
03:00+20sse27933 0.0 1016164
06:00+19se27935 0.0 1016148
09:00+24sse46701 0.0 1016468
12:00+28sse56560 0.0 10161140
15:00+30s46450 0.0 10161499
18:00+29s36520 0.0 10161414
21:00+24sse238089 0.0 101666
24 june, thu
thu2400:00+21w119229 0.0 101615
03:00+19nw2298100 1.9 101750
06:00+20n1196100 1.4 101615
09:00+22w228559 1.4 1017300
12:00+25nnw2268100 0.0 1018560
15:00+26e1273100 0.1 1017369
18:00+26w127014 0.0 1016331
21:00+23ene11824 0.0 101511
25 june, fri
fri2500:00+19e239615 0.0 101666
03:00+18e229416 0.5 101548
06:00+18e24958 0.0 1015118
09:00+24ese347611 0.0 1014444
12:00+28se35595 0.0 1013961
15:00+25se2586100 4.2 1013286
18:00+27s497233 1.1 1011728
21:00+18wnw3109597 7.9 1012287